Location: Stigler
(35.2540°N, 95.1230°W)
Time: 15:39:20
(UTC-05:00)

Daily predictions for brighter satellites

Satellite Brightness Start Highest point End
(mag) Time Altitude Azimuth Time Altitude Azimuth Time Altitude Azimuth
FREGAT/IRIS 2.6 20:03:22 10° SSE 20:06:24 67° ENE 20:09:26 10° N
Okean 3 Rocket 3.6 20:02:52 10° N 20:07:15 62° E 20:11:38 10° SSE
Cosmos 1544 3.0 20:04:03 10° S 20:07:40 77° E 20:11:21 10° N
Cosmos 1934 Rocket 4.4 20:01:52 10° SSW 20:07:57 69° W 20:14:00 10° N
Cosmos 1125 Rocket 3.6 20:03:24 10° SSW 20:08:35 89° WNW 20:13:50 10° NNE
Cosmos-2242 3.7 20:08:47 10° SSE 20:12:30 31° E 20:16:16 10° NNE
Abrixas 3.0 20:10:18 10° WNW 20:13:03 51° SW 20:15:47 10° SE
Cosmos 1048 Rocket 4.2 20:08:53 10° N 20:13:52 50° ENE 20:18:49 10° SE
Timation 2 Rocket 4.3 20:09:44 10° N 20:15:40 43° ENE 20:21:22 10° SE
Cosmos 1758 3.2 20:13:56 10° S 20:17:54 84° E 20:21:55 10° N
HJ-1C 3.5 20:14:58 10° SSE 20:18:17 54° ENE 20:21:38 10° N
In-Cosmos 22 4.1 20:13:06 10° N 20:18:25 86° W 20:23:41 10° S
Cosmos 1953 2.3 20:18:35 10° S 20:22:38 87° E 20:26:43 10° N
Cosmos 1766 Rocket 4.0 20:18:37 10° N 20:22:51 40° E 20:27:03 10° SSE
FENGYUN 3A 3.6 20:20:34 10° SSE 20:25:58 79° ENE 20:31:22 10° N
Cosmos 2369 Rocket 3.5 20:22:37 10° SE 20:26:01 17° E 20:29:25 10° ENE
GP-B 3.5 20:29:56 10° SSE 20:34:06 43° E 20:38:18 10° NNE
CZ-2D R/B 3.5 20:35:04 10° SSE 20:38:47 48° ENE 20:42:32 10° N
Cosmos 1833 Rocket 2.6 20:33:55 10° NNW 20:39:33 77° ENE 20:45:10 10° SSE
Meteor 1-29 3.9 20:40:36 10° NE 20:43:37 27° E 20:44:59 21° SE
Cosmos 2016 Rocket 4.4 20:38:02 10° SSE 20:43:44 40° E 20:49:23 10° NNE
Lacrosse 5 rocket 1.4 20:40:36 10° NNW 20:44:23 49° NE 20:46:14 25° ESE
ATLAS 5 CENTAUR R/B 3.0 20:40:06 10° SW 20:44:32 43° NW 20:49:19 10° NNE
ALOS 2.8 20:39:58 10° S 20:44:34 60° W 20:49:12 10° NNW
USA 186 2.6 20:47:37 21° NE 20:47:37 21° NE 20:48:41 10° NNE
Resurs 01 Rocket 1.6 20:42:41 10° SSE 20:47:05 88° E 20:51:32 10° NNW
Cosmos 1733 3.1 20:44:53 10° S 20:48:44 83° E 20:52:37 10° N
Cosmos 158 Rocket 4.0 20:44:09 10° NNW 20:49:22 87° WSW 20:54:40 10° SSE
Cosmos 1743 Rocket 4.0 20:49:27 10° N 20:53:40 41° E 20:55:49 24° SE
Cosmos 1500 Rocket 4.4 20:50:05 10° NNE 20:53:50 28° ENE 20:54:28 27° E
COSMOS 2487 3.6 20:52:59 10° NNW 20:56:24 45° WSW 20:59:48 10° S
USA 215 3.8 20:50:51 10° ENE 20:56:36 33° SE 21:02:19 10° S
Helios 1B rocket 2.4 20:53:11 10° NNE 20:57:15 59° E 21:01:17 10° S
CZ-4C R/B 2.5 20:54:43 10° S 20:59:23 37° ESE 21:04:31 10° NE
Cosmos 1470 3.2 20:57:25 10° SSW 21:01:21 63° W 21:05:18 10° N
Cosmos 2151 4.2 20:58:03 10° NNE 21:00:57 23° ENE 21:00:57 23° ENE
Cosmos 2251 Rocket 4.0 20:57:03 10° N 21:02:06 41° ENE 21:04:02 30° ESE
PSLV R/B 3.1 20:59:31 10° WSW 21:02:39 77° NNW 21:03:31 44° NE
SAR-Lupe-4 3.5 21:01:25 35° SE 21:02:42 60° ENE 21:06:15 10° N
Cosmos 2100 Rocket 4.1 20:59:08 10° S 21:05:27 84° W 21:11:52 10° N
H-2A R/B 4.0 21:05:44 10° S 21:09:25 41° W 21:13:10 10° NNW
Cosmos 1408 Rocket 4.4 21:07:21 10° NNW 21:11:42 52° W 21:16:01 10° S
Gblst 52 Del rocket 4.4 21:05:35 10° SW 21:11:46 77° NW 21:17:23 10° NE
GPS 2-05 Rocket1 2.7 21:13:48 10° W 21:17:22 84° S 21:17:31 80° SE
Spot 2 Rocket 4.4 21:12:46 10° S 21:17:42 50° W 21:22:40 10° NNW
OAO 2 Rocket 3.3 21:14:09 10° WSW 21:19:18 74° SSE 21:20:52 45° E
Cosmos 494 Rocket 3.9 21:14:36 10° N 21:19:40 61° ENE 21:21:02 44° SE
SAR-Lupe-1 3.9 21:20:48 65° S 21:21:18 87° WSW 21:24:54 10° NNW
CZ-4B DEB 3.6 21:22:20 39° N 21:22:20 39° N 21:24:26 10° N
Cosmos 1184 Rocket 2.9 21:18:58 10° N 21:21:58 69° N 21:21:58 69° N
Cosmos 2082 Rocket 3.5 21:18:57 10° NW 21:24:07 37° WSW 21:29:16 10° S
Helios 1A 3.0 21:22:28 32° S 21:24:20 75° WSW 21:28:32 10° NNW
Tsikada Rocket 4.3 21:18:44 10° N 21:24:43 45° E 21:25:55 41° ESE
Cosmos 1842 Rocket 3.6 21:21:06 10° S 21:25:31 81° W 21:29:55 10° N
Cosmos 389 Rocket 3.2 21:26:45 44° N 21:26:45 44° N 21:29:15 10° N
Cosmos 1340 Rocket 3.6 21:22:30 10° NNW 21:26:21 49° W 21:28:50 20° SSW
Cosmos 1802 Rocket 4.3 21:25:50 10° SSW 21:31:53 65° W 21:38:03 10° N
SeaSat 1 3.6 21:29:58 14° S 21:33:50 39° WSW 21:38:27 10° NW
Envisat 2.9 21:34:26 47° SSE 21:35:58 88° E 21:41:04 10° NNW
Meteor 1-16 Rocket 4.5 21:30:44 10° SSW 21:36:34 74° W 21:42:32 10° N
Cosmos 1356 Rocket 3.3 21:33:08 10° N 21:36:58 78° NNW 21:36:58 78° NNW
ERS-1 Rocket 3.4 21:43:09 48° NE 21:43:09 48° NE 21:47:20 10° N
SL-14 R/B 3.7 21:39:56 10° NNW 21:43:16 59° NW 21:43:16 59° NW
Meteor 1-11 4.1 21:42:57 10° N 21:48:34 89° WSW 21:49:37 61° S
Cosmos 1816 Rocket 4.4 21:42:45 10° N 21:48:55 60° E 21:49:04 60° E
Cosmos 2233 Rocket 3.9 21:56:37 64° ENE 21:56:37 64° ENE 22:02:14 10° NNE
H-2A R/B 4.1 22:09:10 16° NNE 22:09:10 16° NNE 22:10:35 10° NNE
Cosmos 2221 4.5 22:10:11 23° N 22:10:11 23° N 22:11:55 10° N
Cosmos 2369 Rocket 2.7 22:03:58 10° SW 22:09:29 56° WNW 22:15:01 10° NNE
H-2A R/B (2) 3.9 22:10:41 10° WSW 22:14:05 30° SSW 22:14:05 30° SSW
SPOT 5 4.3 22:20:01 33° N 22:20:01 33° N 22:22:59 10° N
Lacrosse 5 rocket 4.2 22:21:35 10° W 22:21:58 11° W 22:21:58 11° W
Cosmos 1943 Rocket 4.3 22:30:17 16° NNE 22:30:17 16° NNE 22:31:24 10° NNE
USA 215 3.6 22:33:20 10° NE 22:39:45 60° NW 22:46:08 10° WSW
CZ-4C R/B 4.0 22:43:25 10° WSW 22:47:55 28° NW 22:52:55 10° NNE
